OSCAR 7 (AO-7) (7530 NORAD) Tracking and Keplerian Element Data

This shows tracking and keplerian element data for the satellite.

Feedback or suggestion? Click here.




ElementValue
Catalog7530
NameOSCAR 7 (AO-7)
Epoch Orbit24946
Epoch Day12.98152866
Epoch Year2024
RAAN6.2284
Inclination101.9685
Eccentricity0.0012327
Argument of Perigee23.6113
Mean Anonmoly43.2767
Mean Motion12.53671026
Decay Rate-4.6E-07
L11 07530U 74089B 24012.98152866 -.00000046 00000+0 -16790-6 0 9997
L22 07530 101.9685 6.2284 0012327 23.6113 43.2767 12.53671026249467



Live tracking and technical data element details for OSCAR 7 (AO-7) (NORAD 7530). OSCAR 7 (AO-7) can be tracked NOW for your location showing map with azimuth and elevation plus other details from your city location.







IsCatalogInMostPopularTable: catalog: 7530, numindb: 3519
Update: records affected: 1



GetName: 7530 OSCAR 7 (AO-7)

Hit Count: updated at: Fri, 01 Mar 2024 11:55:30 GMT